This is the latest recevied weather packets stored in our database for station/object W4BOD. If no packets are shown the sender has not sent any weather packets the latest 10 day(s).
| Time | Temp. | Humidity | Pressure | Rain* | Wind** | Luminosity | Snow |
|---|---|---|---|---|---|---|---|
| 1778083532 | 12.78° C | 99% | 1013.5 hPa | 0 mm | - | 135 W/m² | - |
| 1778083228 | 12.22° C | 99% | 1013.6 hPa | 0 mm | - | 104 W/m² | - |
| 1778082927 | 12.22° C | 99% | 1013.7 hPa | 0 mm | - | 90 W/m² | - |
| 1778081818 | 12.22° C | 99% | 1013.5 hPa | 0 mm | - | 116 W/m² | - |
| 1778081515 | 12.78° C | 99% | 1013.6 hPa | 0 mm | - | 144 W/m² | - |
| 1778081212 | 12.78° C | 99% | 1013.6 hPa | 0 mm | - | 97 W/m² | - |
| 1778080910 | 12.22° C | 99% | 1013.3 hPa | 0 mm | - | 119 W/m² | - |
| 1778080609 | 12.22° C | 99% | 1013.5 hPa | 0 mm | - | 101 W/m² | - |
| 1778080305 | 12.22° C | 99% | 1013.2 hPa | 0 mm | - | 108 W/m² | - |
| 1778080002 | 12.22° C | 99% | 1013.4 hPa | 0 mm | - | 67 W/m² | - |
| 1778079699 | 12.22° C | 99% | 1013.2 hPa | 0 mm | - | 65 W/m² | - |
| 1778079396 | 12.78° C | 99% | 1013.1 hPa | 0 mm | - | 68 W/m² | - |
| 1778079092 | 12.78° C | 99% | 1012.9 hPa | 0 mm | - | 53 W/m² | - |
| 1778078790 | 12.78° C | 99% | 1012.8 hPa | 0 mm | - | 57 W/m² | - |
| 1778078486 | 12.78° C | 99% | 1013.2 hPa | 0 mm | - | 64 W/m² | - |
| 1778078184 | 12.22° C | 99% | 1012.9 hPa | 0 mm | - | 92 W/m² | - |
| 1778077882 | 12.78° C | 99% | 1012.8 hPa | 0 mm | - | 62 W/m² | - |
| 1778077580 | 12.78° C | 99% | 1012.6 hPa | 0 mm | - | 51 W/m² | - |
| 1778077278 | 12.78° C | 99% | 1012.2 hPa | 0 mm | - | 88 W/m² | - |
| 1778076975 | 12.78° C | 99% | 1012 hPa | 0 mm | - | 82 W/m² | - |
| 1778076673 | 12.22° C | 99% | 1011.9 hPa | 0 mm | - | 108 W/m² | - |
| 1778076371 | 12.78° C | 99% | 1011.6 hPa | 0 mm | - | 86 W/m² | - |
| 1778076068 | 12.78° C | 99% | 1011.8 hPa | 0 mm | - | 83 W/m² | - |
| 1778075764 | 12.22° C | 99% | 1011.7 hPa | 0 mm | - | 88 W/m² | - |
| 1778075461 | 12.22° C | 99% | 1011.2 hPa | 0 mm | - | 96 W/m² | - |
* Rain latest hour (hover to see other rain measurements)
** Current wind speed in m/s (hover to see current wind gust speed)